Time,TemperatureF,DewpointF,PressureIn,WindDirection,WindDirectionDegrees,WindSpeedMPH,WindSpeedGustMPH,Humidity,HourlyPrecipIn,Conditions,Clouds,dailyrainin,SoftwareType,DateUTC
2013-12-07 00:01:00,52.0,52.0,27.88,SSE,157,0.0,0.0,100,0.00,,,0.00,Rainwise IP-100,2013-12-07 05:01:00,
2013-12-07 00:02:00,52.0,52.0,27.88,SSE,157,0.0,0.0,100,0.00,,,0.00,Rainwise IP-100,2013-12-07 05:02:00,
2013-12-07 00:07:00,52.0,52.0,27.88,WNW,292,0.0,2.0,100,0.00,,,0.00,Rainwise IP-100,2013-12-07 05:07:00,
2013-12-07 00:12:00,52.0,52.0,27.88,WNW,292,0.0,0.0,100,0.00,,,0.00,Rainwise IP-100,2013-12-07 05:12:00,
2013-12-07 00:17:00,52.0,52.0,27.87,SW,225,0.0,0.0,100,0.00,,,0.00,Rainwise IP-100,2013-12-07 05:17:00,
2013-12-07 00:22:00,52.0,52.0,27.87,SW,225,0.0,0.0,100,0.00,,,0.00,Rainwise IP-100,2013-12-07 05:22:00,
2013-12-07 00:27:00,52.0,52.0,27.86,SW,225,0.0,0.0,100,0.00,,,0.00,Rainwise IP-100,2013-12-07 05:27:00,
2013-12-07 00:32:00,51.0,51.0,27.86,South,180,0.0,2.0,100,0.00,,,0.00,Rainwise IP-100,2013-12-07 05:32:00,
2013-12-07 00:37:00,51.0,51.0,27.86,SSE,157,0.0,2.0,100,0.00,,,0.00,Rainwise IP-100,2013-12-07 05:37:00,
2013-12-07 00:42:00,51.0,51.0,27.86,SSE,157,0.0,0.0,100,0.00,,,0.00,Rainwise IP-100,2013-12-07 05:42:00,
2013-12-07 00:47:00,51.0,51.0,27.86,SSE,157,0.0,0.0,100,0.00,,,0.00,Rainwise IP-100,2013-12-07 05:47:00,
2013-12-07 00:52:00,51.0,51.0,27.86,SE,135,0.0,0.0,100,0.00,,,0.00,Rainwise IP-100,2013-12-07 05:52:00,
2013-12-07 00:57:00,51.0,51.0,27.86,SE,135,0.0,0.0,100,0.00,,,0.00,Rainwise IP-100,2013-12-07 05:57:00,
2013-12-07 01:02:00,51.0,51.0,27.86,SE,135,0.0,0.0,100,0.00,,,0.00,Rainwise IP-100,2013-12-07 06:02:00,
2013-12-07 01:07:00,51.0,51.0,27.86,SE,135,0.0,0.0,100,0.00,,,0.00,Rainwise IP-100,2013-12-07 06:07:00,
2013-12-07 01:12:00,51.0,51.0,27.86,SE,135,0.0,0.0,100,0.00,,,0.00,Rainwise IP-100,2013-12-07 06:12:00,
2013-12-07 01:17:00,51.0,51.0,27.86,SE,135,0.0,0.0,100,0.00,,,0.00,Rainwise IP-100,2013-12-07 06:17:00,
2013-12-07 01:22:00,51.0,51.0,27.86,SE,135,0.0,0.0,100,0.00,,,0.00,Rainwise IP-100,2013-12-07 06:22:00,
2013-12-07 01:27:00,51.0,51.0,27.86,SSE,157,0.0,0.0,100,0.00,,,0.00,Rainwise IP-100,2013-12-07 06:27:00,
2013-12-07 01:32:00,50.0,50.0,27.86,South,180,0.0,1.0,100,0.00,,,0.00,Rainwise IP-100,2013-12-07 06:32:00,
2013-12-07 01:37:00,50.0,50.0,27.86,WSW,247,0.0,2.0,100,0.00,,,0.00,Rainwise IP-100,2013-12-07 06:37:00,
2013-12-07 01:42:00,50.0,50.0,27.86,SSW,202,1.0,3.0,100,0.00,,,0.00,Rainwise IP-100,2013-12-07 06:42:00,
2013-12-07 01:47:00,50.0,50.0,27.86,West,270,0.0,2.0,100,0.00,,,0.00,Rainwise IP-100,2013-12-07 06:47:00,
2013-12-07 01:52:00,50.0,50.0,27.86,West,270,0.0,2.0,100,0.00,,,0.00,Rainwise IP-100,2013-12-07 06:52:00,
2013-12-07 01:57:00,50.0,50.0,27.88,SW,225,0.0,2.0,100,0.00,,,0.00,Rainwise IP-100,2013-12-07 06:57:00,
2013-12-07 02:02:00,50.0,50.0,27.88,SW,225,0.0,0.0,100,0.00,,,0.00,Rainwise IP-100,2013-12-07 07:02:00,
2013-12-07 02:07:00,50.0,50.0,27.88,SW,225,0.0,0.0,100,0.00,,,0.00,Rainwise IP-100,2013-12-07 07:07:00,
2013-12-07 02:12:00,50.0,50.0,27.88,SW,225,0.0,0.0,100,0.00,,,0.00,Rainwise IP-100,2013-12-07 07:12:00,
2013-12-07 02:17:00,50.0,50.0,27.89,SW,225,0.0,0.0,100,0.00,,,0.00,Rainwise IP-100,2013-12-07 07:17:00,
2013-12-07 02:22:00,50.0,50.0,27.89,SW,225,0.0,0.0,100,0.00,,,0.00,Rainwise IP-100,2013-12-07 07:22:00,
2013-12-07 02:27:00,50.0,50.0,27.90,WNW,292,1.0,7.0,100,0.00,,,0.00,Rainwise IP-100,2013-12-07 07:27:00,
2013-12-07 02:32:00,49.0,49.0,27.90,WNW,292,4.0,8.0,100,0.00,,,0.00,Rainwise IP-100,2013-12-07 07:32:00,
2013-12-07 02:37:00,49.0,49.0,27.90,WNW,292,2.0,8.0,100,0.00,,,0.00,Rainwise IP-100,2013-12-07 07:37:00,
2013-12-07 02:42:00,49.0,49.0,27.90,NNE,22,5.0,8.0,100,0.00,,,0.00,Rainwise IP-100,2013-12-07 07:42:00,
2013-12-07 02:47:00,49.0,49.0,27.90,WNW,292,4.0,8.0,100,0.00,,,0.00,Rainwise IP-100,2013-12-07 07:47:00,
2013-12-07 02:52:00,49.0,49.0,27.90,WNW,292,4.0,8.0,100,0.00,,,0.00,Rainwise IP-100,2013-12-07 07:52:00,
2013-12-07 02:57:00,49.0,49.0,27.91,NW,315,0.0,4.0,100,0.00,,,0.00,Rainwise IP-100,2013-12-07 07:57:00,
2013-12-07 03:02:00,48.0,48.0,27.91,WNW,292,2.0,5.0,100,0.00,,,0.00,Rainwise IP-100,2013-12-07 08:02:00,
2013-12-07 03:07:00,48.0,48.0,27.92,NNW,337,0.0,5.0,100,0.00,,,0.00,Rainwise IP-100,2013-12-07 08:07:00,
2013-12-07 03:12:00,47.0,47.0,27.92,WNW,292,6.0,8.0,99,0.00,,,0.00,Rainwise IP-100,2013-12-07 08:12:00,
2013-12-07 03:17:00,47.0,47.0,27.92,NW,315,4.0,9.0,100,0.00,,,0.00,Rainwise IP-100,2013-12-07 08:17:00,
2013-12-07 03:22:00,46.0,46.0,27.92,WNW,292,1.0,8.0,100,0.00,,,0.00,Rainwise IP-100,2013-12-07 08:22:00,
2013-12-07 03:27:00,46.0,46.0,27.93,WNW,292,3.0,6.0,99,0.00,,,0.00,Rainwise IP-100,2013-12-07 08:27:00,
2013-12-07 03:32:00,46.0,46.0,27.93,NNW,337,1.0,6.0,99,0.00,,,0.00,Rainwise IP-100,2013-12-07 08:32:00,
2013-12-07 03:37:00,45.0,44.0,27.93,NNW,337,0.0,5.0,98,0.00,,,0.00,Rainwise IP-100,2013-12-07 08:37:00,
2013-12-07 03:42:00,45.0,44.0,27.93,NNW,337,0.0,3.0,98,0.00,,,0.00,Rainwise IP-100,2013-12-07 08:42:00,
2013-12-07 03:47:00,45.0,44.0,27.94,NW,315,2.0,8.0,96,0.00,,,0.00,Rainwise IP-100,2013-12-07 08:47:00,
2013-12-07 03:52:00,45.0,44.0,27.94,West,270,5.0,6.0,96,0.00,,,0.00,Rainwise IP-100,2013-12-07 08:52:00,
2013-12-07 03:57:00,44.0,43.0,27.94,WNW,292,1.0,6.0,96,0.00,,,0.00,Rainwise IP-100,2013-12-07 08:57:00,
2013-12-07 04:02:00,44.0,43.0,27.94,WNW,292,2.0,5.0,96,0.00,,,0.00,Rainwise IP-100,2013-12-07 09:02:00,
2013-12-07 04:07:00,44.0,43.0,27.94,WNW,292,1.0,5.0,95,0.00,,,0.00,Rainwise IP-100,2013-12-07 09:07:00,
2013-12-07 04:12:00,44.0,43.0,27.95,SSE,157,0.0,5.0,96,0.00,,,0.00,Rainwise IP-100,2013-12-07 09:12:00,
2013-12-07 04:17:00,44.0,43.0,27.95,NW,315,0.0,5.0,95,0.00,,,0.00,Rainwise IP-100,2013-12-07 09:17:00,
2013-12-07 04:22:00,44.0,43.0,27.95,NW,315,0.0,0.0,95,0.00,,,0.00,Rainwise IP-100,2013-12-07 09:22:00,
2013-12-07 04:27:00,44.0,43.0,27.95,NW,315,0.0,0.0,95,0.00,,,0.00,Rainwise IP-100,2013-12-07 09:27:00,
2013-12-07 04:32:00,43.0,42.0,27.96,NW,315,2.0,6.0,95,0.00,,,0.00,Rainwise IP-100,2013-12-07 09:32:00,
2013-12-07 04:37:00,43.0,42.0,27.96,WNW,292,1.0,6.0,95,0.00,,,0.00,Rainwise IP-100,2013-12-07 09:37:00,
2013-12-07 04:42:00,43.0,42.0,27.96,WNW,292,1.0,3.0,95,0.00,,,0.00,Rainwise IP-100,2013-12-07 09:42:00,
2013-12-07 04:47:00,43.0,42.0,27.96,WNW,292,1.0,3.0,95,0.00,,,0.00,Rainwise IP-100,2013-12-07 09:47:00,
2013-12-07 04:52:00,43.0,42.0,27.96,WNW,292,1.0,3.0,95,0.00,,,0.00,Rainwise IP-100,2013-12-07 09:52:00,
2013-12-07 04:57:00,43.0,42.0,27.96,WNW,292,1.0,3.0,95,0.00,,,0.00,Rainwise IP-100,2013-12-07 09:57:00,
2013-12-07 05:02:00,43.0,42.0,27.96,WNW,292,1.0,3.0,95,0.00,,,0.00,Rainwise IP-100,2013-12-07 10:02:00,
2013-12-07 05:07:00,43.0,42.0,27.96,WNW,292,2.0,3.0,95,0.00,,,0.00,Rainwise IP-100,2013-12-07 10:07:00,
2013-12-07 05:12:00,43.0,42.0,27.96,WNW,292,0.0,3.0,95,0.00,,,0.00,Rainwise IP-100,2013-12-07 10:12:00,
2013-12-07 05:17:00,43.0,42.0,27.96,WNW,292,0.0,3.0,95,0.00,,,0.00,Rainwise IP-100,2013-12-07 10:17:00,
2013-12-07 05:22:00,43.0,42.0,27.96,WNW,292,0.0,3.0,95,0.00,,,0.00,Rainwise IP-100,2013-12-07 10:22:00,
2013-12-07 05:27:00,43.0,42.0,27.96,WNW,292,0.0,0.0,95,0.00,,,0.00,Rainwise IP-100,2013-12-07 10:27:00,
2013-12-07 06:51:00,41.0,38.0,28.02,NW,315,0.0,0.0,90,0.00,,,0.00,Rainwise IP-100,2013-12-07 11:51:00,
2013-12-07 06:56:00,41.0,38.0,28.02,NNE,22,3.0,3.0,90,0.00,,,0.00,Rainwise IP-100,2013-12-07 11:56:00,
2013-12-07 07:01:00,41.0,38.0,28.02,NNE,22,3.0,3.0,90,0.00,,,0.00,Rainwise IP-100,2013-12-07 12:01:00,
2013-12-07 07:06:00,41.0,38.0,28.04,NNE,22,5.0,5.0,90,0.00,,,0.00,Rainwise IP-100,2013-12-07 12:06:00,
2013-12-07 07:11:00,41.0,38.0,28.04,ENE,67,4.0,5.0,90,0.00,,,0.00,Rainwise IP-100,2013-12-07 12:11:00,
2013-12-07 07:16:00,41.0,38.0,28.05,WSW,247,1.0,5.0,90,0.00,,,0.00,Rainwise IP-100,2013-12-07 12:16:00,
2013-12-07 07:21:00,41.0,38.0,28.05,NNE,22,0.0,6.0,90,0.00,,,0.00,Rainwise IP-100,2013-12-07 12:21:00,
2013-12-07 07:26:00,41.0,38.0,28.05,NNW,337,2.0,7.0,89,0.00,,,0.00,Rainwise IP-100,2013-12-07 12:26:00,
2013-12-07 07:31:00,41.0,38.0,28.05,NE,45,3.0,8.0,89,0.00,,,0.00,Rainwise IP-100,2013-12-07 12:31:00,
2013-12-07 07:36:00,41.0,38.0,28.05,ENE,67,0.0,6.0,90,0.00,,,0.00,Rainwise IP-100,2013-12-07 12:36:00,
2013-12-07 07:41:00,41.0,38.0,28.05,ENE,67,0.0,0.0,90,0.00,,,0.00,Rainwise IP-100,2013-12-07 12:41:00,
2013-12-07 07:46:00,40.0,37.0,28.06,SSW,202,2.0,8.0,89,0.00,,,0.00,Rainwise IP-100,2013-12-07 12:46:00,
2013-12-07 07:51:00,40.0,38.0,28.06,NNW,337,1.0,8.0,90,0.00,,,0.00,Rainwise IP-100,2013-12-07 12:51:00,
2013-12-07 07:56:00,40.0,38.0,28.06,NNW,337,1.0,6.0,91,0.00,,,0.00,Rainwise IP-100,2013-12-07 12:56:00,
2013-12-07 08:01:00,40.0,38.0,28.06,NNW,337,1.0,6.0,91,0.00,,,0.00,Rainwise IP-100,2013-12-07 13:01:00,
2013-12-07 08:06:00,40.0,38.0,28.06,WNW,292,5.0,8.0,91,0.00,,,0.00,Rainwise IP-100,2013-12-07 13:06:00,
2013-12-07 08:11:00,40.0,38.0,28.06,WNW,292,1.0,8.0,92,0.00,,,0.00,Rainwise IP-100,2013-12-07 13:11:00,
2013-12-07 08:16:00,40.0,38.0,28.06,NW,315,1.0,5.0,92,0.00,,,0.00,Rainwise IP-100,2013-12-07 13:16:00,
2013-12-07 08:21:00,40.0,38.0,28.08,NW,315,3.0,3.0,92,0.00,,,0.00,Rainwise IP-100,2013-12-07 13:21:00,
2013-12-07 08:26:00,40.0,38.0,28.08,NW,315,3.0,4.0,92,0.00,,,0.00,Rainwise IP-100,2013-12-07 13:26:00,
2013-12-07 08:31:00,40.0,38.0,28.08,West,270,4.0,7.0,92,0.00,,,0.00,Rainwise IP-100,2013-12-07 13:31:00,
2013-12-07 08:36:00,40.0,38.0,28.08,West,270,4.0,7.0,92,0.00,,,0.00,Rainwise IP-100,2013-12-07 13:36:00,
2013-12-07 08:41:00,40.0,38.0,28.08,West,270,4.0,7.0,92,0.00,,,0.00,Rainwise IP-100,2013-12-07 13:41:00,
2013-12-07 08:46:00,40.0,38.0,28.08,West,270,4.0,7.0,92,0.00,,,0.00,Rainwise IP-100,2013-12-07 13:46:00,
2013-12-07 08:51:00,41.0,39.0,28.08,SSE,157,0.0,7.0,91,0.00,,,0.00,Rainwise IP-100,2013-12-07 13:51:00,
2013-12-07 08:56:00,41.0,39.0,28.08,SSE,157,0.0,4.0,91,0.00,,,0.00,Rainwise IP-100,2013-12-07 13:56:00,
2013-12-07 09:01:00,41.0,39.0,28.08,SSE,157,0.0,0.0,91,0.00,,,0.00,Rainwise IP-100,2013-12-07 14:01:00,
2013-12-07 09:06:00,41.0,39.0,28.08,SSE,157,0.0,2.0,91,0.00,,,0.00,Rainwise IP-100,2013-12-07 14:06:00,
2013-12-07 09:11:00,41.0,39.0,28.08,SSE,157,0.0,0.0,91,0.00,,,0.00,Rainwise IP-100,2013-12-07 14:11:00,
2013-12-07 10:39:00,42.0,38.0,28.11,WNW,292,6.0,0.0,86,0.00,,,0.00,Rainwise IP-100,2013-12-07 15:39:00,
2013-12-07 10:44:00,42.0,38.0,28.11,WNW,292,3.0,6.0,87,0.00,,,0.00,Rainwise IP-100,2013-12-07 15:44:00,
2013-12-07 10:49:00,42.0,38.0,28.11,WNW,292,3.0,4.0,87,0.00,,,0.00,Rainwise IP-100,2013-12-07 15:49:00,
2013-12-07 10:54:00,42.0,38.0,28.12,NW,315,3.0,5.0,87,0.00,,,0.00,Rainwise IP-100,2013-12-07 15:54:00,
2013-12-07 10:59:00,42.0,38.0,28.12,NW,315,3.0,3.0,87,0.00,,,0.00,Rainwise IP-100,2013-12-07 15:59:00,
2013-12-07 11:05:00,42.0,38.0,28.12,NW,315,3.0,3.0,87,0.00,,,0.00,Rainwise IP-100,2013-12-07 16:05:00,
2013-12-07 11:10:00,42.0,38.0,28.12,NW,315,1.0,3.0,87,0.00,,,0.00,Rainwise IP-100,2013-12-07 16:10:00,
2013-12-07 11:15:00,44.0,39.0,28.12,West,270,2.0,5.0,84,0.00,,,0.00,Rainwise IP-100,2013-12-07 16:15:00,
2013-12-07 11:20:00,44.0,39.0,28.12,West,270,2.0,5.0,84,0.00,,,0.00,Rainwise IP-100,2013-12-07 16:20:00,
2013-12-07 11:25:00,44.0,39.0,28.12,West,270,4.0,5.0,84,0.00,,,0.00,Rainwise IP-100,2013-12-07 16:25:00,
2013-12-07 11:30:00,44.0,39.0,28.12,West,270,2.0,5.0,84,0.00,,,0.00,Rainwise IP-100,2013-12-07 16:30:00,
2013-12-07 11:35:00,44.0,39.0,28.12,West,270,2.0,5.0,84,0.00,,,0.00,Rainwise IP-100,2013-12-07 16:35:00,
2013-12-07 11:40:00,45.0,40.0,28.10,NW,315,0.0,5.0,83,0.00,,,0.00,Rainwise IP-100,2013-12-07 16:40:00,
2013-12-07 11:45:00,44.0,39.0,28.10,WSW,247,1.0,2.0,82,0.00,,,0.00,Rainwise IP-100,2013-12-07 16:45:00,
2013-12-07 11:50:00,44.0,39.0,28.10,WSW,247,1.0,2.0,82,0.00,,,0.00,Rainwise IP-100,2013-12-07 16:50:00,
2013-12-07 11:55:00,44.0,39.0,28.10,West,270,1.0,2.0,82,0.00,,,0.00,Rainwise IP-100,2013-12-07 16:55:00,
2013-12-07 12:00:00,44.0,39.0,28.10,West,270,1.0,2.0,82,0.00,,,0.00,Rainwise IP-100,2013-12-07 17:00:00,
2013-12-07 12:05:00,44.0,39.0,28.10,WSW,247,1.0,2.0,82,0.00,,,0.00,Rainwise IP-100,2013-12-07 17:05:00,
2013-12-07 12:10:00,44.0,39.0,28.10,WSW,247,1.0,2.0,82,0.00,,,0.00,Rainwise IP-100,2013-12-07 17:10:00,
2013-12-07 12:15:00,44.0,39.0,28.10,West,270,1.0,2.0,82,0.00,,,0.00,Rainwise IP-100,2013-12-07 17:15:00,
2013-12-07 12:20:00,44.0,39.0,28.10,West,270,1.0,2.0,82,0.00,,,0.00,Rainwise IP-100,2013-12-07 17:20:00,
2013-12-07 12:25:00,44.0,39.0,28.10,West,270,1.0,2.0,82,0.00,,,0.00,Rainwise IP-100,2013-12-07 17:25:00,
2013-12-07 12:30:00,44.0,39.0,28.10,West,270,1.0,2.0,82,0.00,,,0.00,Rainwise IP-100,2013-12-07 17:30:00,
2013-12-07 12:35:00,48.0,43.0,28.10,North,360,0.0,2.0,81,0.00,,,0.00,Rainwise IP-100,2013-12-07 17:35:00,
2013-12-07 12:40:00,47.0,40.0,28.08,WNW,292,3.0,5.0,78,0.00,,,0.00,Rainwise IP-100,2013-12-07 17:40:00,
2013-12-07 12:45:00,46.0,40.0,28.08,WNW,292,1.0,5.0,82,0.00,,,0.00,Rainwise IP-100,2013-12-07 17:45:00,
2013-12-07 12:50:00,45.0,40.0,28.10,West,270,1.0,3.0,83,0.00,,,0.00,Rainwise IP-100,2013-12-07 17:50:00,
2013-12-07 12:55:00,46.0,40.0,28.08,WNW,292,1.0,4.0,81,0.00,,,0.00,Rainwise IP-100,2013-12-07 17:55:00,
2013-12-07 13:00:00,45.0,40.0,28.08,WNW,292,1.0,7.0,82,0.00,,,0.00,Rainwise IP-100,2013-12-07 18:00:00,
2013-12-07 13:05:00,47.0,40.0,28.08,WNW,292,0.0,3.0,77,0.00,,,0.00,Rainwise IP-100,2013-12-07 18:05:00,
2013-12-07 13:10:00,46.0,40.0,28.08,West,270,4.0,8.0,80,0.00,,,0.00,Rainwise IP-100,2013-12-07 18:10:00,
2013-12-07 13:15:00,45.0,39.0,28.09,WNW,292,3.0,6.0,81,0.00,,,0.00,Rainwise IP-100,2013-12-07 18:15:00,
2013-12-07 13:20:00,45.0,40.0,28.09,NW,315,2.0,6.0,82,0.00,,,0.00,Rainwise IP-100,2013-12-07 18:20:00,
2013-12-07 13:25:00,45.0,39.0,28.09,WNW,292,4.0,6.0,81,0.00,,,0.00,Rainwise IP-100,2013-12-07 18:25:00,
2013-12-07 13:30:00,46.0,41.0,28.09,WNW,292,3.0,6.0,83,0.00,,,0.00,Rainwise IP-100,2013-12-07 18:30:00,
2013-12-07 13:35:00,47.0,40.0,28.08,West,270,3.0,3.0,78,0.00,,,0.00,Rainwise IP-100,2013-12-07 18:35:00,
2013-12-07 13:40:00,46.0,39.0,28.08,West,270,0.0,4.0,79,0.00,,,0.00,Rainwise IP-100,2013-12-07 18:40:00,
2013-12-07 13:45:00,47.0,41.0,28.08,WNW,292,0.0,3.0,80,0.00,,,0.00,Rainwise IP-100,2013-12-07 18:45:00,
2013-12-07 13:50:00,47.0,40.0,28.08,WNW,292,0.0,3.0,79,0.00,,,0.00,Rainwise IP-100,2013-12-07 18:50:00,
2013-12-07 13:55:00,47.0,40.0,28.08,WNW,292,0.0,0.0,79,0.00,,,0.00,Rainwise IP-100,2013-12-07 18:55:00,
2013-12-07 14:00:00,47.0,40.0,28.08,WNW,292,0.0,0.0,79,0.00,,,0.00,Rainwise IP-100,2013-12-07 19:00:00,
2013-12-07 14:05:00,47.0,40.0,28.08,WNW,292,0.0,0.0,79,0.00,,,0.00,Rainwise IP-100,2013-12-07 19:05:00,
2013-12-07 14:10:00,47.0,40.0,28.08,WNW,292,0.0,0.0,79,0.00,,,0.00,Rainwise IP-100,2013-12-07 19:10:00,
2013-12-07 14:15:00,49.0,41.0,28.06,NW,315,0.0,2.0,74,0.00,,,0.00,Rainwise IP-100,2013-12-07 19:15:00,
2013-12-07 14:20:00,48.0,41.0,28.07,WNW,292,2.0,3.0,76,0.00,,,0.00,Rainwise IP-100,2013-12-07 19:20:00,
2013-12-07 14:25:00,49.0,42.0,28.06,SW,225,1.0,2.0,77,0.00,,,0.00,Rainwise IP-100,2013-12-07 19:25:00,
2013-12-07 14:30:00,49.0,42.0,28.06,WNW,292,1.0,3.0,76,0.00,,,0.00,Rainwise IP-100,2013-12-07 19:30:00,
2013-12-07 14:35:00,49.0,42.0,28.06,West,270,0.0,2.0,77,0.00,,,0.00,Rainwise IP-100,2013-12-07 19:35:00,
2013-12-07 14:40:00,49.0,42.0,28.07,WSW,247,0.0,2.0,76,0.00,,,0.00,Rainwise IP-100,2013-12-07 19:40:00,
2013-12-07 14:45:00,49.0,41.0,28.06,SSW,202,0.0,0.0,75,0.00,,,0.00,Rainwise IP-100,2013-12-07 19:45:00,
2013-12-07 14:50:00,49.0,41.0,28.06,SSW,202,2.0,3.0,75,0.00,,,0.00,Rainwise IP-100,2013-12-07 19:50:00,
2013-12-07 14:55:00,49.0,42.0,28.06,SSW,202,0.0,2.0,77,0.00,,,0.00,Rainwise IP-100,2013-12-07 19:55:00,
2013-12-07 15:00:00,49.0,42.0,28.06,SSW,202,0.0,1.0,77,0.00,,,0.00,Rainwise IP-100,2013-12-07 20:00:00,
2013-12-07 15:05:00,49.0,42.0,28.06,SSW,202,0.0,1.0,77,0.00,,,0.00,Rainwise IP-100,2013-12-07 20:05:00,
2013-12-07 15:10:00,49.0,42.0,28.06,NW,315,0.0,3.0,77,0.00,,,0.00,Rainwise IP-100,2013-12-07 20:10:00,
2013-12-07 15:15:00,49.0,42.0,28.06,NW,315,0.0,0.0,77,0.00,,,0.00,Rainwise IP-100,2013-12-07 20:15:00,
2013-12-07 15:20:00,49.0,42.0,28.06,NW,315,0.0,0.0,77,0.00,,,0.00,Rainwise IP-100,2013-12-07 20:20:00,
2013-12-07 15:25:00,49.0,42.0,28.06,NW,315,0.0,0.0,77,0.00,,,0.00,Rainwise IP-100,2013-12-07 20:25:00,
2013-12-07 15:30:00,48.0,42.0,28.06,WNW,292,2.0,0.0,78,0.00,,,0.00,Rainwise IP-100,2013-12-07 20:30:00,
2013-12-07 15:35:00,48.0,42.0,28.06,NNW,337,0.0,3.0,78,0.00,,,0.00,Rainwise IP-100,2013-12-07 20:35:00,
2013-12-07 15:40:00,48.0,42.0,28.06,WNW,292,3.0,3.0,80,0.00,,,0.00,Rainwise IP-100,2013-12-07 20:40:00,
2013-12-07 15:45:00,47.0,40.0,28.06,WNW,292,0.0,3.0,79,0.00,,,0.00,Rainwise IP-100,2013-12-07 20:45:00,
2013-12-07 15:50:00,47.0,40.0,28.06,WNW,292,0.0,1.0,79,0.00,,,0.00,Rainwise IP-100,2013-12-07 20:50:00,
2013-12-07 15:55:00,47.0,40.0,28.06,WNW,292,0.0,1.0,79,0.00,,,0.00,Rainwise IP-100,2013-12-07 20:55:00,
2013-12-07 16:00:00,47.0,40.0,28.06,WNW,292,0.0,1.0,79,0.00,,,0.00,Rainwise IP-100,2013-12-07 21:00:00,
2013-12-07 16:05:00,47.0,40.0,28.06,WNW,292,0.0,1.0,79,0.00,,,0.00,Rainwise IP-100,2013-12-07 21:05:00,
2013-12-07 16:10:00,47.0,40.0,28.06,WNW,292,0.0,1.0,79,0.00,,,0.00,Rainwise IP-100,2013-12-07 21:10:00,
2013-12-07 16:15:00,47.0,40.0,28.06,WNW,292,0.0,1.0,79,0.00,,,0.00,Rainwise IP-100,2013-12-07 21:15:00,
2013-12-07 16:20:00,47.0,40.0,28.06,WNW,292,0.0,1.0,79,0.00,,,0.00,Rainwise IP-100,2013-12-07 21:20:00,
2013-12-07 16:25:00,47.0,40.0,28.06,WNW,292,0.0,1.0,79,0.00,,,0.00,Rainwise IP-100,2013-12-07 21:25:00,
2013-12-07 16:30:00,47.0,41.0,28.07,WNW,292,0.0,1.0,81,0.00,,,0.00,Rainwise IP-100,2013-12-07 21:30:00,
2013-12-07 16:35:00,47.0,41.0,28.07,WNW,292,0.0,1.0,81,0.00,,,0.00,Rainwise IP-100,2013-12-07 21:35:00,
2013-12-07 16:40:00,47.0,41.0,28.08,WNW,292,0.0,0.0,82,0.00,,,0.00,Rainwise IP-100,2013-12-07 21:40:00,
2013-12-07 16:45:00,47.0,41.0,28.08,WNW,292,0.0,0.0,82,0.00,,,0.00,Rainwise IP-100,2013-12-07 21:45:00,
2013-12-07 16:50:00,47.0,41.0,28.08,WNW,292,0.0,0.0,82,0.00,,,0.00,Rainwise IP-100,2013-12-07 21:50:00,
2013-12-07 16:55:00,46.0,40.0,28.09,WNW,292,0.0,2.0,82,0.00,,,0.00,Rainwise IP-100,2013-12-07 21:55:00,
2013-12-07 17:00:00,46.0,40.0,28.09,WNW,292,0.0,1.0,82,0.00,,,0.00,Rainwise IP-100,2013-12-07 22:00:00,
2013-12-07 17:05:00,46.0,40.0,28.09,WNW,292,0.0,1.0,82,0.00,,,0.00,Rainwise IP-100,2013-12-07 22:05:00,
2013-12-07 17:10:00,46.0,40.0,28.09,WNW,292,0.0,1.0,82,0.00,,,0.00,Rainwise IP-100,2013-12-07 22:10:00,
2013-12-07 17:15:00,46.0,40.0,28.09,WNW,292,0.0,1.0,82,0.00,,,0.00,Rainwise IP-100,2013-12-07 22:15:00,
2013-12-07 17:20:00,46.0,40.0,28.09,WNW,292,0.0,1.0,82,0.00,,,0.00,Rainwise IP-100,2013-12-07 22:20:00,
2013-12-07 17:25:00,46.0,40.0,28.09,WNW,292,0.0,1.0,82,0.00,,,0.00,Rainwise IP-100,2013-12-07 22:25:00,
2013-12-07 17:30:00,45.0,41.0,28.09,SSW,202,0.0,1.0,85,0.00,,,0.00,Rainwise IP-100,2013-12-07 22:30:00,
2013-12-07 17:35:00,45.0,40.0,28.09,SSW,202,0.0,1.0,84,0.00,,,0.00,Rainwise IP-100,2013-12-07 22:35:00,
2013-12-07 17:40:00,45.0,40.0,28.09,SSW,202,1.0,1.0,84,0.00,,,0.00,Rainwise IP-100,2013-12-07 22:40:00,
2013-12-07 17:45:00,45.0,41.0,28.09,SSE,157,1.0,1.0,85,0.00,,,0.00,Rainwise IP-100,2013-12-07 22:45:00,
2013-12-07 17:50:00,45.0,41.0,28.09,SSE,157,1.0,1.0,85,0.00,,,0.00,Rainwise IP-100,2013-12-07 22:50:00,
2013-12-07 17:55:00,45.0,41.0,28.09,South,180,0.0,1.0,85,0.00,,,0.00,Rainwise IP-100,2013-12-07 22:55:00,
2013-12-07 18:00:00,45.0,41.0,28.09,South,180,0.0,1.0,85,0.00,,,0.00,Rainwise IP-100,2013-12-07 23:00:00,
2013-12-07 18:05:00,45.0,41.0,28.09,SSE,157,1.0,1.0,85,0.00,,,0.00,Rainwise IP-100,2013-12-07 23:05:00,
2013-12-07 18:10:00,44.0,40.0,28.10,SSW,202,0.0,1.0,86,0.00,,,0.00,Rainwise IP-100,2013-12-07 23:10:00,
2013-12-07 18:15:00,44.0,40.0,28.11,SSW,202,0.0,2.0,86,0.00,,,0.00,Rainwise IP-100,2013-12-07 23:15:00,
2013-12-07 18:20:00,44.0,40.0,28.11,SSW,202,0.0,0.0,87,0.00,,,0.00,Rainwise IP-100,2013-12-07 23:20:00,
2013-12-07 18:25:00,44.0,40.0,28.11,SSW,202,0.0,0.0,87,0.00,,,0.00,Rainwise IP-100,2013-12-07 23:25:00,
2013-12-07 18:30:00,44.0,40.0,28.11,SSW,202,1.0,1.0,87,0.00,,,0.00,Rainwise IP-100,2013-12-07 23:30:00,
2013-12-07 18:35:00,44.0,40.0,28.11,SSW,202,0.0,2.0,87,0.00,,,0.00,Rainwise IP-100,2013-12-07 23:35:00,
2013-12-07 18:40:00,44.0,41.0,28.11,SSW,202,0.0,0.0,88,0.00,,,0.00,Rainwise IP-100,2013-12-07 23:40:00,
2013-12-07 18:45:00,44.0,41.0,28.12,SSW,202,0.0,0.0,88,0.00,,,0.00,Rainwise IP-100,2013-12-07 23:45:00,
2013-12-07 18:50:00,44.0,41.0,28.12,SSW,202,0.0,0.0,88,0.00,,,0.00,Rainwise IP-100,2013-12-07 23:50:00,
2013-12-07 18:55:00,44.0,40.0,28.12,SSW,202,0.0,1.0,87,0.00,,,0.00,Rainwise IP-100,2013-12-07 23:55:00,
2013-12-07 19:00:00,43.0,40.0,28.12,SSW,202,0.0,1.0,89,0.00,,,0.00,Rainwise IP-100,2013-12-08 00:00:00,
2013-12-07 19:05:00,43.0,40.0,28.13,SSW,202,0.0,0.0,88,0.00,,,0.00,Rainwise IP-100,2013-12-08 00:05:00,
2013-12-07 19:10:00,43.0,40.0,28.13,SSW,202,0.0,0.0,89,0.00,,,0.00,Rainwise IP-100,2013-12-08 00:10:00,
2013-12-07 19:15:00,43.0,40.0,28.13,SSW,202,0.0,0.0,89,0.00,,,0.00,Rainwise IP-100,2013-12-08 00:15:00,
2013-12-07 19:20:00,43.0,40.0,28.13,SSW,202,0.0,0.0,90,0.00,,,0.00,Rainwise IP-100,2013-12-08 00:20:00,
2013-12-07 19:25:00,43.0,40.0,28.13,SSW,202,0.0,0.0,89,0.00,,,0.00,Rainwise IP-100,2013-12-08 00:25:00,
2013-12-07 19:30:00,43.0,40.0,28.13,SSW,202,0.0,0.0,90,0.00,,,0.00,Rainwise IP-100,2013-12-08 00:30:00,
2013-12-07 19:35:00,43.0,40.0,28.14,SSW,202,0.0,0.0,90,0.00,,,0.00,Rainwise IP-100,2013-12-08 00:35:00,
2013-12-07 19:40:00,42.0,40.0,28.14,SSW,202,0.0,0.0,91,0.00,,,0.00,Rainwise IP-100,2013-12-08 00:40:00,
2013-12-07 19:45:00,42.0,40.0,28.14,SSW,202,0.0,0.0,92,0.00,,,0.00,Rainwise IP-100,2013-12-08 00:45:00,
2013-12-07 19:50:00,42.0,40.0,28.14,SSW,202,0.0,0.0,93,0.00,,,0.00,Rainwise IP-100,2013-12-08 00:50:00,
2013-12-07 19:55:00,42.0,40.0,28.14,SSW,202,0.0,0.0,93,0.00,,,0.00,Rainwise IP-100,2013-12-08 00:55:00,
2013-12-07 20:00:00,42.0,41.0,28.14,SSW,202,0.0,0.0,96,0.00,,,0.00,Rainwise IP-100,2013-12-08 01:00:00,
2013-12-07 20:05:00,42.0,41.0,28.14,SSW,202,0.0,0.0,96,0.00,,,0.00,Rainwise IP-100,2013-12-08 01:05:00,
2013-12-07 20:10:00,42.0,41.0,28.14,SSW,202,0.0,0.0,96,0.00,,,0.00,Rainwise IP-100,2013-12-08 01:10:00,
2013-12-07 20:15:00,41.0,41.0,28.13,SSW,202,0.0,0.0,99,0.00,,,0.00,Rainwise IP-100,2013-12-08 01:15:00,
2013-12-07 20:20:00,41.0,41.0,28.13,SSW,202,0.0,0.0,99,0.00,,,0.00,Rainwise IP-100,2013-12-08 01:20:00,
2013-12-07 20:25:00,41.0,41.0,28.13,SSW,202,0.0,0.0,99,0.00,,,0.00,Rainwise IP-100,2013-12-08 01:25:00,
2013-12-07 20:30:00,41.0,41.0,28.13,SSW,202,0.0,0.0,99,0.00,,,0.00,Rainwise IP-100,2013-12-08 01:30:00,
2013-12-07 20:35:00,41.0,41.0,28.13,SSW,202,0.0,0.0,99,0.00,,,0.00,Rainwise IP-100,2013-12-08 01:35:00,
2013-12-07 20:40:00,41.0,41.0,28.13,SSW,202,0.0,0.0,99,0.00,,,0.00,Rainwise IP-100,2013-12-08 01:40:00,
2013-12-07 20:45:00,41.0,41.0,28.13,SSW,202,0.0,0.0,99,0.00,,,0.00,Rainwise IP-100,2013-12-08 01:45:00,
2013-12-07 20:50:00,41.0,41.0,28.13,SSW,202,0.0,0.0,99,0.00,,,0.00,Rainwise IP-100,2013-12-08 01:50:00,
2013-12-07 20:55:00,41.0,41.0,28.13,SSW,202,0.0,0.0,99,0.00,,,0.00,Rainwise IP-100,2013-12-08 01:55:00,
2013-12-07 21:00:00,41.0,41.0,28.13,SSW,202,0.0,0.0,99,0.00,,,0.00,Rainwise IP-100,2013-12-08 02:00:00,
2013-12-07 21:05:00,41.0,41.0,28.13,SSW,202,0.0,0.0,99,0.00,,,0.00,Rainwise IP-100,2013-12-08 02:05:00,
2013-12-07 21:10:00,41.0,41.0,28.13,SSW,202,0.0,0.0,99,0.00,,,0.00,Rainwise IP-100,2013-12-08 02:10:00,
2013-12-07 21:15:00,41.0,41.0,28.13,SSW,202,0.0,0.0,99,0.00,,,0.00,Rainwise IP-100,2013-12-08 02:15:00,
2013-12-07 21:20:00,41.0,41.0,28.13,SSW,202,0.0,0.0,99,0.00,,,0.00,Rainwise IP-100,2013-12-08 02:20:00,
2013-12-07 21:25:00,41.0,41.0,28.13,SSW,202,0.0,0.0,99,0.00,,,0.00,Rainwise IP-100,2013-12-08 02:25:00,
2013-12-07 21:30:00,41.0,41.0,28.13,SSW,202,0.0,0.0,99,0.00,,,0.00,Rainwise IP-100,2013-12-08 02:30:00,